NOAA 16 DEB, 41344

Orbit data source: Space-Track

NOAA 16 DEB, 41344 is space debris in SSO originally from a launch on Thu, 21 Sep 2000 UTC launched from the Air Force Western Test Range (AFWTR). Debris objects in space refer to the collection of defunct objects orbiting the Earth. Examples of debris include non-operational satellites, rocket bodies, and fragments generated from explosions, collisions, or faulty payload assembly.

Loading next visibility...
Identifier
41344, 2000-055HM
Orbit
SSO
Country
Flag of USUS
Related business
Manufacturer
Unknown
Mission
Spacecraft
Bus & Motor
Unknown
Mass
Unknown
Launch date (UTC)
2000-09-21 (26 years ago)
Launch vehicle
Unknown
Launch site
Air Force Western Test Range (AFWTR)
Object type
Payload
Rocket body
Debris
Shape & HBR
Unknown shape, 0.1 m
Radar Cross Section
Medium (>0.1 m² and <1 m²)

Expand to show TLE details & history
Last TLE update: 2 days ago

TLE from 2 days ago
0 NOAA 16 DEB
1 41344U 00055HM  26171.14956160  .00004122  00000-0  11452-2 0  9999
2 41344  99.0591  58.0721 0023135 139.6246 220.6666 14.46895614540936
Epoch: 2026-06-20T03:35Z
TLE epoch observation values (Epoch: 2026-06-20T03:35:22.122Z)
Latitude
-0.00008°
Longitude
95.86161°
Altitude
751.248 km
Speed
7.472 km/s
True Right ascension
03h 52m 17s
True Declination
0° 00' 00"
Sunlit
Object was in daylight at epoch
Visualization orbit readout
Latitude
Unknown
Longitude
Unknown
Altitude
Unknown
Speed
Unknown
Apparent Right ascension
Unknown
Apparent Declination
Unknown
Sunlit
N/A
Visualization observer readout
Local Sidereal Time
23:18:53
Azimuth
Unknown
Elevation
Unknown
Doppler factor
Unknown
Orbital elements
Apogee altitude
749.397 km
Perigee altitude
716.494 km
Semi-major axis
7,111.083 km
Eccentricity
0.00231
Inclination
99.0591°
RAAN
58.0721°
Arg. of periapsis
139.6246°
True anomaly
220.49422°
Mean anomaly
220.6666°
Eccentric anomaly
220.58037°
Mean motion
3.61942 °/min
Orbital period
99.46 mins
BSTAR
0.0011452
Loading maneuver chart data...
Computing Atmospheric mass density...
Loading historical data...
Loading historical data...
Loading historical data...
Loading historical data...
Loading historical data...
Loading historical data...
Loading historical data...

Documentation

Showing up to 5 results
|